CW5920 Weather Reports


time (UTC)temp
C
wind
direction
speed
KPH
gust
KPH
rain 1hr
cm
rain 24hr
cm
rain mn
cm
humidity
%
barometer
mb
20260902214536 36 68 8.0 20.9 0.00 0.00 0.00 40 1011.7
20260902213516 37 68 11.3 20.9 0.00 0.00 0.00 40 1011.7
20260902212516 37 23 6.4 17.7 0.00 0.00 0.00 40 1011.8
20260902211517 37 338 9.7 17.7 0.00 0.00 0.00 40 1011.8
20260902210516 37 0 8.0 16.1 0.00 0.00 0.00 40 1011.9
20260902205517 37 0 8.0 19.3 0.00 0.00 0.00 40 1012.1
20260902204516 37 45 8.0 17.7 0.00 0.00 0.00 41 1012.2
20260902203537 36 45 8.0 17.7 0.00 0.00 0.00 40 1012.3
20260902202517 37 0 6.4 16.1 0.00 0.00 0.00 40 1012.4
20260902201517 37 0 6.4 16.1 0.00 0.00 0.00 40 1012.6
20260902200517 37 90 4.8 16.1 0.00 0.00 0.00 41 1012.7
20260902195516 37 68 8.0 19.3 0.00 0.00 0.00 40 1012.9
20260902194516 37 0 4.8 16.1 0.00 0.00 0.00 40 1013.0
20260902193517 37 45 8.0 16.1 0.00 0.00 0.00 39 1013.2
20260902192517 37 338 6.4 17.7 0.00 0.00 0.00 39 1013.5
20260902191517 36 338 6.4 20.9 0.00 0.00 0.00 40 1013.6
20260902190516 36 0 6.4 17.7 0.00 0.00 0.00 41 1013.7
20260902185516 36 90 12.9 22.5 0.00 0.00 0.00 40 1013.9
20260902184517 36 0 3.2 14.5 0.00 0.00 0.00 42 1014.0
20260902183516 36 45 8.0 19.3 0.00 0.00 0.00 41 1014.2
20260902182517 36 338 4.8 12.9 0.00 0.00 0.00 41 1014.4
20260902181517 36 0 4.8 11.3 0.00 0.00 0.00 41 1014.5
20260902180517 36 0 3.2 16.1 0.00 0.00 0.00 42 1014.8
20260902175536 36 338 8.0 17.7 0.00 0.00 0.00 42 1015.0
20260902174517 36 338 6.4 16.1 0.00 0.00 0.00 43 1015.2
20260902173516 36 293 8.0 17.7 0.00 0.00 0.00 43 1015.3
20260902172516 35 0 3.2 9.7 0.00 0.00 0.00 44 1015.4
20260902171556 35 68 3.2 14.5 0.00 0.00 0.00 46 1015.5
20260902170516 35 68 3.2 12.9 0.00 0.00 0.00 45 1015.7
20260902165517 35 113 3.2 9.7 0.00 0.00 0.00 46 1015.7
20260902164517 35 68 1.6 6.4 0.00 0.00 0.00 47 1015.8
20260902163516 35 45 1.6 11.3 0.00 0.00 0.00 47 1015.8
20260902162516 34 68 1.6 11.3 0.00 0.00 0.00 47 1015.9
20260902161516 34 135 1.6 6.4 0.00 0.00 0.00 49 1016.0
20260902160516 33 0.0 4.8 0.00 0.00 0.00 51 1016.1
20260902155516 33 0.0 4.8 0.00 0.00 0.00 53 1016.0
20260902154516 32 68 3.2 8.0 0.00 0.00 0.00 55 1016.0
20260902153536 32 23 1.6 6.4 0.00 0.00 0.00 56 1016.0
20260902152516 32 0.0 3.2 0.00 0.00 0.00 58 1016.1
20260902151517 32 68 1.6 9.7 0.00 0.00 0.00 59 1016.1
20260902150516 31 90 1.6 6.4 0.00 0.00 0.00 59 1016.1
20260902145517 31 0.0 3.2 0.00 0.00 0.00 62 1016.0
20260902144536 30 90 1.6 4.8 0.00 0.00 0.00 64 1016.0
20260902143516 30 90 3.2 4.8 0.00 0.00 0.00 65 1016.1
20260902142516 29 90 1.6 4.8 0.00 0.00 0.00 67 1016.0
20260902141516 28 90 3.2 8.0 0.00 0.00 0.00 68 1016.0
20260902140518 28 90 6.4 11.3 0.00 0.00 0.00 70 1016.1
20260902135516 28 68 4.8 12.9 0.00 0.00 0.00 71 1016.2
20260902134517 27 90 3.2 8.0 0.00 0.00 0.00 73 1016.1
20260902133516 27 158 3.2 6.4 0.00 0.00 0.00 75 1016.0
20260902132516 26 158 3.2 6.4 0.00 0.00 0.00 77 1016.0
20260902131517 26 158 1.6 4.8 0.00 0.00 0.00 79 1015.8
20260902130557 25 158 1.6 3.2 0.00 0.00 0.00 80 1015.7
20260902125516 25 0.0 3.2 0.00 0.00 0.00 83 1015.5
20260902124516 24 0.0 0.0 0.00 0.00 0.00 84 1015.4
20260902123536 24 0.0 4.8 0.00 0.00 0.00 84 1015.4
20260902122516 23 0.0 1.6 0.00 0.00 0.00 84 1015.3
20260902121536 23 0.0 1.6 0.00 0.00 0.00 83 1015.2
20260902121016 23 0.0 0.0 0.00 0.00 0.00 83 1015.1
20260902120016 24 0.0 0.0 0.00 0.00 0.00 82 1015.2
20260902115016 24 0.0 0.0 0.00 0.00 0.00 82 1015.2
20260902114016 24 0.0 0.0 0.00 0.00 0.00 82 1015.2
20260902113016 24 0.0 0.0 0.00 0.00 0.00 82 1015.3
20260902112016 24 0.0 0.0 0.00 0.00 0.00 82 1015.4
20260902111016 25 0.0 4.8 0.00 0.00 0.00 82 1015.3
20260902110016 25 0.0 0.0 0.00 0.00 0.00 80 1015.3
20260902105016 25 0.0 0.0 0.00 0.00 0.00 79 1015.2
20260902104016 25 0.0 0.0 0.00 0.00 0.00 79 1015.2
20260902103016 25 0.0 0.0 0.00 0.00 0.00 78 1015.2
20260902102016 25 0.0 0.0 0.00 0.00 0.00 77 1015.2
20260902101036 25 0.0 0.0 0.00 0.00 0.00 78 1015.0
20260902100016 25 0.0 0.0 0.00 0.00 0.00 77 1015.1
20260902095016 26 0.0 0.0 0.00 0.00 0.00 77 1015.1
20260902094016 26 0.0 0.0 0.00 0.00 0.00 76 1015.1
20260902093016 26 0.0 0.0 0.00 0.00 0.00 76 1015.1
20260902092016 26 0.0 0.0 0.00 0.00 0.00 75 1015.2
20260902091016 26 0.0 0.0 0.00 0.00 0.00 74 1015.3
20260902090016 26 0.0 0.0 0.00 0.00 0.00 74 1015.3
20260902085017 26 0.0 0.0 0.00 0.00 0.00 74 1015.3
20260902084017 26 0.0 1.6 0.00 0.00 0.00 73 1015.3
20260902083017 27 0.0 0.0 0.00 0.00 0.00 73 1015.4
20260902082015 27 0.0 3.2 0.00 0.00 0.00 73 1015.5
20260902081017 27 0.0 3.2 0.00 0.00 0.00 72 1015.4
20260902080015 27 0.0 3.2 0.00 0.00 0.00 71 1015.4
20260902075017 27 0.0 3.2 0.00 0.00 0.00 71 1015.3
20260902074015 27 158 1.6 4.8 0.00 0.00 0.00 70 1015.5
20260902073017 27 158 1.6 6.4 0.00 0.00 0.00 69 1015.5
20260902072037 28 0.0 3.2 0.00 0.00 0.00 69 1015.7
20260902071017 28 158 1.6 11.3 0.00 0.00 0.00 68 1015.7
20260902070017 28 135 1.6 6.4 0.00 0.00 0.00 68 1015.6
20260902065017 28 135 4.8 8.0 0.00 0.00 0.00 68 1015.5
20260902064057 28 158 6.4 12.9 0.00 0.00 0.00 67 1015.6
20260902063017 28 135 6.4 19.3 0.00 0.00 0.00 67 1015.6
20260902062018 28 135 8.0 16.1 0.00 0.00 0.00 67 1015.5
20260902061017 28 113 11.3 16.1 0.00 0.00 0.00 67 1015.5
20260902060017 28 113 8.0 16.1 0.00 0.00 0.00 66 1015.4
20260902055017 28 113 9.7 19.3 0.00 0.00 0.00 66 1015.3
20260902054037 28 113 8.0 16.1 0.00 0.00 0.00 65 1015.2
20260902053017 28 135 8.0 16.1 0.00 0.00 0.00 65 1015.1
20260902052017 29 113 6.4 14.5 0.00 0.00 0.00 64 1015.1
20260902051017 29 113 9.7 19.3 0.00 0.00 0.00 63 1015.1
20260902050017 29 113 11.3 20.9 0.00 0.00 0.00 62 1015.1
20260902045017 30 113 14.5 22.5 0.00 0.00 0.00 61 1015.1
20260902044017 30 113 12.9 22.5 0.00 0.00 0.00 60 1015.0
20260902043017 30 113 8.0 17.7 0.00 0.00 0.00 59 1015.0
20260902042017 30 90 12.9 20.9 0.00 0.00 0.00 60 1014.9
20260902041017 30 0.0 0.0 0.00 0.00 0.00 59 1014.6
20260902040037 30 0.0 3.2 0.00 0.00 0.00 59 1014.5
20260902035017 30 0.0 0.0 0.00 0.00 0.00 58 1014.7
20260902034017 30 0.0 1.6 0.00 0.00 0.00 57 1014.7
20260902033017 30 113 1.6 4.8 0.00 0.00 0.00 57 1014.6
20260902032017 30 113 1.6 4.8 0.00 0.00 0.00 56 1014.6
20260902031017 31 113 1.6 4.8 0.00 0.00 0.00 56 1014.4
20260902030037 31 113 1.6 6.4 0.00 0.00 0.00 55 1014.3
20260902025017 31 0.0 4.8 0.00 0.00 0.00 55 1014.1
20260902024017 31 0.0 3.2 0.00 0.00 0.00 54 1013.8
20260902023017 31 0.0 3.2 0.00 0.00 0.00 54 1013.7
20260902022017 31 0.0 1.6 0.00 0.00 0.00 53 1013.6
20260902021017 32 0.0 3.2 0.00 0.00 0.00 52 1013.4
20260902020017 32 0.0 4.8 0.00 0.00 0.00 51 1013.4
20260902015017 32 90 1.6 9.7 0.00 0.00 0.00 51 1013.3
20260902014017 32 0.0 1.6 0.00 0.00 0.00 49 1013.0
20260902013017 33 0.0 0.0 0.00 0.00 0.00 48 1013.0
20260902012017 33 0.0 1.6 0.00 0.00 0.00 47 1013.0
20260902011017 33 0.0 3.2 0.00 0.00 0.00 47 1012.8
20260902010017 33 90 3.2 6.4 0.00 0.00 0.00 46 1012.8
20260902005017 34 68 3.2 8.0 0.00 0.00 0.00 45 1012.8
20260902004017 34 90 6.4 11.3 0.00 0.00 0.00 45 1012.7
20260902003017 35 90 8.0 16.1 0.00 0.00 0.00 44 1012.9
20260902002017 35 90 11.3 19.3 0.00 0.00 0.00 43 1012.8
20260902001017 35 90 9.7 14.5 0.00 0.00 0.00 43 1012.9
20260902000017 35 113 12.9 20.9 0.00 0.00 0.00 42 1012.9
20260901235017 35 113 8.0 14.5 0.00 0.00 0.00 42 1012.9
20260901234037 35 113 4.8 11.3 0.00 0.00 0.00 42 1013.1
20260901233017 36 113 3.2 11.3 0.00 0.00 0.00 41 1013.1
20260901232017 36 135 6.4 11.3 0.00 0.00 0.00 41 1013.2
20260901231037 36 90 9.7 14.5 0.00 0.00 0.00 40 1013.3
20260901230017 36 113 11.3 16.1 0.00 0.00 0.00 40 1013.3
20260901225017 36 113 11.3 20.9 0.00 0.00 0.00 39 1013.2
20260901224017 36 113 12.9 19.3 0.00 0.00 0.00 40 1013.2
20260901223017 36 113 12.9 20.9 0.00 0.00 0.00 41 1013.2
20260901222037 36 68 12.9 24.1 0.00 0.00 0.00 41 1013.2
20260901221017 35 90 6.4 12.9 0.00 0.00 0.00 42 1013.2
20260901220017 36 90 9.7 17.7 0.00 0.00 0.00 41 1013.3